Lid_Strength_Index
11 13 15 13 14 15 15 17 17 16 14 14 14 14 13 12 13 13 13 12 12 12 10 11 11 11 10 6 4 2 2 1 1 1 2 1 3 2 1 1 1 2 3 5
13 15 12 12 13 14 15 16 16 16 14 14 15 15 13 13 12 12 12 12 13 13 12 11 11 12 11 10 6 4 2 1 1 1 1 1 1 1 1 1 1 1 3 4
14 13 12 13 15 15 16 17 17 17 16 16 17 17 16 15 14 13 12 13 13 12 11 12 12 12 12 12 11 7 3 1 1 1 1 4 3 3 2 1 1 2 2 3
14 12 13 14 15 15 17 14 14 15 16 19 17 21 18 16 14 14 13 14 13 13 13 12 11 11 11 11 12 11 7 3 1 2 2 2 2 3 2 1 1 1 2 3
14 13 13 15 14 13 15 13 14 16 18 18 19 19 18 17 15 14 14 12 13 12 11 11 11 10 10 10 10 10 8 5 2 2 2 2 2 2 4 2 2 3 3 2
14 12 12 13 13 13 13 15 15 17 18 21 19 19 19 18 16 14 15 12 12 12 12 11 11 11 11 10 10 8 6 5 3 3 4 3 3 6 7 7 3 3 3 3
14 14 12 12 14 13 15 16 19 21 21 21 20 19 18 16 15 15 13 12 12 12 12 11 11 11 11 11 10 9 7 6 4 4 4 5 5 6 6 7 5 6 6 7
17 17 13 12 13 14 15 15 19 23 23 21 18 20 17 15 13 12 12 12 12 12 11 11 11 11 11 10 10 10 9 9 6 6 6 6 6 6 7 7 8 7 6 5
17 17 14 13 13 11 15 17 15 19 26 22 19 18 15 14 13 13 12 12 12 12 12 11 11 11 11 10 10 10 10 9 9 8 7 6 7 7 7 7 8 8 8 7
14 17 14 13 12 12 14 13 17 18 24 25 21 20 18 15 14 13 13 12 12 12 12 12 12 11 11 10 10 9 9 9 9 9 8 8 8 7 7 8 7 8 8 8
14 15 15 14 14 15 15 16 16 16 18 22 24 20 16 15 13 13 13 12 12 12 12 12 12 12 11 11 11 10 10 9 9 9 8 8 8 8 8 9 8 9 9 9
13 14 17 16 14 13 14 15 15 18 19 19 19 18 14 13 12 12 11 11 12 12 12 11 11 11 11 11 11 11 11 10 10 9 9 9 9 9 9 9 9 10 10 10
13 16 21 17 16 15 15 15 14 15 16 18 20 18 13 13 12 12 12 12 11 11 12 12 11 11 12 12 12 12 12 11 11 11 11 10 10 10 10 10 10 10 10 10
10 15 16 18 17 14 15 15 14 14 18 16 17 17 14 13 12 12 12 12 12 12 12 12 12 12 12 12 12 12 12 12 13 12 12 12 12 12 12 11 11 11 12 12
11 16 16 16 16 16 16 15 15 14 13 16 15 16 13 12 12 12 12 13 12 12 12 12 12 12 12 12 12 12 13 13 14 13 13 14 14 13 14 14 14 14 14 14
11 16 14 16 14 15 17 16 16 14 14 16 16 16 13 12 12 12 12 12 13 13 12 12 12 12 12 12 13 13 13 14 14 14 14 14 15 15 15 15 15 15 14 14
13 14 15 16 14 15 16 15 15 15 14 14 16 13 12 13 12 13 13 13 13 13 13 13 12 13 13 13 13 14 14 14 15 15 15 15 15 15 15 15 15 15 15 15
14 14 14 17 16 20 15 16 13 13 14 13 13 13 11 11 12 13 13 14 14 13 13 13 13 13 13 13 14 14 15 15 15 15 16 16 16 16 15 16 16 16 16 16
12 13 16 18 18 18 17 16 15 15 14 12 12 14 14 13 13 15 14 14 14 14 14 14 13 13 13 14 14 15 15 15 15 15 16 16 17 17 17 17 16 16 17 15
13 12 14 18 19 21 18 17 14 12 17 18 13 14 14 14 17 15 14 14 14 15 14 14 14 14 14 15 15 15 15 15 15 15 15 16 16 18 18 17 17 18 18 15
16 14 16 17 18 18 16 15 13 17 17 17 16 15 15 16 15 14 13 14 14 14 14 14 14 15 15 15 15 15 16 16 16 17 17 17 17 19 19 19 17 18 17 16
16 16 16 16 18 19 17 15 16 15 16 16 16 16 16 16 15 15 15 15 14 14 14 14 16 16 15 16 17 16 17 16 17 18 18 18 19 18 17 21 16 18 19 17
18 15 16 15 16 15 16 16 14 13 15 16 16 15 15 15 16 15 15 15 14 15 14 16 16 16 15 16 16 16 15 16 15 14 15 18 17 16 16 19 17 16 15 14
17 14 16 14 13 15 15 15 15 15 15 14 14 14 14 15 14 14 13 13 14 15 15 16 17 16 16 16 16 17 16 15 17 17 15 14 13 14 14 15 16 16 15 15
15 14 17 17 14 13 13 14 13 14 14 14 14 14 14 13 13 13 15 15 15 16 17 17 17 18 18 18 19 19 19 20 20 20 18 17 14 13 13 14 13 14 13 14
14 14 15 16 11 12 12 12 12 12 13 13 13 14 14 14 15 16 16 17 17 19 19 19 19 20 21 21 21 21 22 22 22 21 18 17 17 16 14 13 13 10 10 10